Weather in Petelino

Russia / Tula Oblast     54°07′38″N   37°42′14″E
temp.,
°C
wind,
m/s
gust,
m/s
humid.,
%
clouds,
%
prec.,
mm/h
press.,
hPa
HPBL,
m
16 may, sun
sun1600:00+13ssw410920 0.0 1011341
03:00+12ssw36950 0.0 1012146
06:00+13ssw25920 0.0 1013147
09:00+18sw35735 0.0 1013569
12:00+21ssw475118 0.1 10131697
15:00+22sw575211 0.1 10141950
18:00+21wsw356067 0.0 1013616
21:00+16ese1172100 0.0 101411
17 may, mon
mon1700:00+15e338026 0.0 101442
03:00+13e34845 0.0 101459
06:00+14e4108499 0.0 1014218
09:00+20e610745 0.0 1013473
12:00+24ese796211 0.0 1012920
15:00+25ese695833 0.0 10111133
18:00+23ese6116498 0.0 1010748
21:00+19ese515788 0.0 1010464
18 may, tue
tue1800:00+17ese515805 0.0 1009408
03:00+15ese513795 0.0 1009321
06:00+15se5127768 0.0 1009288
09:00+20se6106395 0.0 1009450
12:00+24se71251100 0.0 1009877
15:00+25se694959 0.0 10081275
18:00+23ese61261100 0.0 1007780
21:00+20ese6157292 0.0 1007586
19 may, wed
wed1900:00+19se51472100 0.0 1006461
03:00+16ese3878100 0.0 1006186
06:00+16se51378100 0.0 1007399
09:00+20sse6107298 0.0 1007858
12:00+21sse61159100 0.0 10071367
15:00+20sse71268100 0.1 10081469
18:00+20se61168100 0.2 10061167
21:00+16se3890100 2.4 1006215
20 may, thu
thu2000:00+14sse249588 1.3 1006162
03:00+12sse369559 1.4 1006188
06:00+13sse3993100 0.0 1006420
09:00+14s6886100 0.4 1007924
12:00+15ssw5870100 0.1 10081267
15:00+16ssw797697 0.8 10101155
18:00+14ssw698456 0.8 1011857
21:00+11sw499112 1.1 1013345